sat.trackr.live / text

‹ back to catalog

STARLINK-5271

NORAD 54194 · 2022-141AP

PAYLOAD ACTIVE UNKNOWN

§ Identity

Operator
Country
US
Launch date
2022-10-28
Launch site
AFWTR
Launch vehicle
Mass (kg)
RCS (m²)

Purposes: comms

External: N2YO · Heavens-Above · Gunter

§ Orbital elements

Epoch: 2026-09-20T04:18:04.419648Z

Period
93.85 min
Inclination
53.1612°
Eccentricity
0.0001284
Mean motion
15.34379583 rev/d
Perigee alt
461.9 km
Apogee alt
463.6 km
Semi-major
6,840.9 km
B*
5.6726e-5
RAAN
190.9331°
Arg perigee
85.6778°
Mean anomaly
274.4371°
Rev number
21,549

§ Raw data

STARLINK-52711 54194U 22141AP  26263.17921782  .00001540  00000+0  56726-4 0  99982 54194  53.1612 190.9331 0001284  85.6778 274.4371 15.34379583215492

JSON: /api/v1/satellites/54194 · /tle

For live sub-satellite position, see the globe view (requires WebGL).

§ Visibility from observer

Set your observer location to see the next 7 days of passes ≥ 10°. The values pass through the URL so the page stays shareable.

No JS? Fill the form by hand. The geolocation button needs JavaScript.